User: anonymous   Login
Location: Unspecified
(0.0000°N, 0.0000°E)
Time: 00:52:04
(UTC+00:00)
Language:

Optus B1 - Orbit

View from above orbital plane
View from above orbital plane
View from above satellite
View from above satellite

Ground track
Ground track

The orbit data is extracted from the following two-line orbital elements,

1 22087U 92054A   17057.65392337 -.00000011  00000-0  00000+0 0  9999
2 22087   8.5288  46.7885 0004752  19.3533  50.7114  0.99201504100999
Epoch (UTC): 26 February 2017 15:41:38
Eccentricity: 0.0004752
inclination: 8.5288°
perigee height: 36069 km
apogee height: 36109 km
right ascension of ascending node: 46.7885°
argument of perigee: 19.3533°
revolutions per day: 0.99201504
mean anomaly at epoch: 50.7114°
orbit number at epoch: 10099

The dashed part of the orbit path shows where the satellite is in the earth's shadow,  

DLR